tititudorancea.com
Station Historical Data
Daily Summary for March 6, 2019 Units:  Metric    English   Both
« Previous Day
Next Day »
Daily Weekly Monthly Yearly Custom
  High: Low: Average:
Temperature: -17.8 °C 8.3 °C 12.2 °C
Dew Point: -17.8 °C 0.7 °C 5.2 °C
Humidity: Humidity % 36 % 64 %
Wind Speed: 0 km/h 3.7 km/h 20 km/h
Wind Gust: 0 km/h - -
Wind:- - SW
Pressure: 0 hPa 1009.7 hPa -
Precipitation: 0.51 mm    
Historical Graphs
 
 
Ararat weather Find more about Weather in Ararat, AU


 



 


Tabular Data for March 6, 2019
Time Temperature Dew Point Pressure Wind Wind Speed Wind Gust Humidity Rainfall Rate (Hourly)
-17.8 °C -17.8 °C 0 hPa Calm     Humidity % 0 mm
00:04 12.8 °C 11.4 °C 1010.4 hPa North 18.5 km/h 16.4 km/h 91 % 0 mm
00:09 12.8 °C 11.3 °C 1010.4 hPa SSW 24.1 km/h 15 km/h 91 % 0 mm
00:14 12.8 °C 11.4 °C 1010.4 hPa SSW 18.5 km/h 12.6 km/h 91 % 0 mm
00:19 12.7 °C 11.2 °C 1010.4 hPa South 31.5 km/h 15.3 km/h 91 % 0 mm
00:24 12.4 °C 11 °C 1010.4 hPa SW 16.7 km/h 11.3 km/h 91 % 0 mm
00:29 12.1 °C 10.7 °C 1010.4 hPa SSW 18.5 km/h 9.5 km/h 91 % 0 mm
00:34 11.9 °C 10.4 °C 1010.4 hPa SSW 14.8 km/h 7.7 km/h 91 % 0 mm
00:39 11.8 °C 10.3 °C 1010.4 hPa SSW 18.5 km/h 12.4 km/h 91 % 0 mm
00:44 11.7 °C 10.3 °C 1010.4 hPa SSW 14.5 km/h 11.7 km/h 91 % 0 mm
00:49 11.7 °C 10.3 °C 1010.4 hPa SW 11.1 km/h 10.6 km/h 91 % 0 mm
00:54 11.7 °C 10.3 °C 1010.4 hPa SW 16.7 km/h 7.9 km/h 91 % 0 mm
00:59 11.8 °C 10.4 °C 1010.4 hPa SSW 22.2 km/h 17.2 km/h 91 % 0 mm
01:04 11.9 °C 10.3 °C 1010.4 hPa SSW 9.3 km/h 7.9 km/h 90 % 0 mm
01:09 11.9 °C 10.3 °C 1010 hPa SW 18.5 km/h 10.1 km/h 90 % 0 mm
01:14 12 °C 10.2 °C 1010.4 hPa SW 11.3 km/h 10.8 km/h 89 % 0 mm
01:19 12 °C 10.2 °C 1010.4 hPa SW 13 km/h 10.6 km/h 89 % 0 mm
01:24 12.1 °C 10.1 °C 1010.4 hPa SSW 12.9 km/h 12.9 km/h 88 % 0 mm
01:29 12 °C 10.1 °C 1010 hPa SSW 14.8 km/h 8.4 km/h 88 % 0 mm
01:34 12.1 °C 10.1 °C 1010 hPa SSW 20.4 km/h 15.3 km/h 88 % 0 mm
01:39 12 °C 9.9 °C 1010 hPa SSW 14.8 km/h 14.3 km/h 87 % 0 mm
01:44 12.1 °C 9.9 °C 1010 hPa SSW 16.7 km/h 12.2 km/h 87 % 0 mm
01:49 12.1 °C 9.8 °C 1010 hPa SSW 18.5 km/h 12.6 km/h 86 % 0 mm
01:54 12.2 °C 9.9 °C 1010 hPa SSW 16.7 km/h 10.6 km/h 86 % 0 mm
01:59 12.2 °C 9.9 °C 1010 hPa SW 13 km/h 10.1 km/h 86 % 0 mm
02:04 12.2 °C 9.7 °C 1010 hPa SSW 11.1 km/h 6.8 km/h 85 % 0 mm
02:09 12.2 °C 9.7 °C 1010 hPa SW 18.5 km/h 11.3 km/h 85 % 0 mm
02:14 12.1 °C 9.7 °C 1010 hPa SW 11.1 km/h 10 km/h 85 % 0 mm
02:19 12.1 °C 9.7 °C 1010 hPa SW 13 km/h 10 km/h 85 % 0 mm
02:24 12.1 °C 9.7 °C 1010 hPa SW 14.5 km/h 7.9 km/h 85 % 0 mm
02:29 12.1 °C 9.7 °C 1009.7 hPa SW 11.1 km/h 6.3 km/h 85 % 0 mm
02:34 12.1 °C 9.7 °C 1010 hPa SW 8 km/h 2.6 km/h 85 % 0 mm
02:39 12.1 °C 9.7 °C 1010 hPa North 9.3 km/h 6.6 km/h 85 % 0 mm
02:44 12.2 °C 9.7 °C 1009.7 hPa SW 9.3 km/h 6.6 km/h 85 % 0 mm
02:49 12.2 °C 9.8 °C 1010 hPa SW 14.8 km/h 10.3 km/h 85 % 0 mm
02:54 12.2 °C 9.9 °C 1010.4 hPa North 16.7 km/h 9.8 km/h 86 % 0 mm
02:59 12 °C 9.7 °C 1010.4 hPa SW 16.7 km/h 10.6 km/h 86 % 0 mm
03:04 11.8 °C 9.7 °C 1010 hPa WSW 16.1 km/h 13.7 km/h 87 % 0 mm
03:09 11.7 °C 9.6 °C 1010 hPa SW 16.7 km/h 12.4 km/h 87 % 0 mm
03:14 11.7 °C 9.6 °C 1010 hPa North 11.1 km/h 10.8 km/h 87 % 0 mm
03:19 11.7 °C 9.6 °C 1010 hPa SW 8 km/h 4.8 km/h 87 % 0 mm
03:24 11.6 °C 9.5 °C 1010 hPa WSW 14.8 km/h 10.5 km/h 87 % 0 mm
03:29 11.7 °C 9.4 °C 1010 hPa SW 18.5 km/h 10.3 km/h 86 % 0 mm
03:34 11.7 °C 9.4 °C 1010 hPa SW 11.1 km/h 5.3 km/h 86 % 0 mm
03:39 11.7 °C 9.4 °C 1010 hPa WSW 11.3 km/h 12.9 km/h 86 % 0 mm
03:44 11.7 °C 9.4 °C 1010 hPa WSW 11.1 km/h 6.9 km/h 86 % 0 mm
03:49 11.6 °C 9.3 °C 1010 hPa SSW 18.5 km/h 13.8 km/h 86 % 0 mm
03:54 11.6 °C 9.3 °C 1010 hPa SSW 14.8 km/h 7.9 km/h 86 % 0 mm
03:59 11.6 °C 9.1 °C 1010 hPa SSW 14.8 km/h 8.4 km/h 85 % 0 mm
04:04 11.6 °C 8.9 °C 1010 hPa South 31.5 km/h 13.7 km/h 84 % 0 mm
04:09 11.6 °C 8.9 °C 1010 hPa SW 24.1 km/h 17.2 km/h 84 % 0 mm
04:14 11.5 °C 8.9 °C 1010 hPa SW 18.5 km/h 10.1 km/h 84 % 0 mm
04:19 11.5 °C 8.7 °C 1010 hPa SSW 20.4 km/h 17.7 km/h 83 % 0 mm
04:24 11.4 °C 8.7 °C 1010 hPa SW 11.1 km/h 12.7 km/h 83 % 0 mm
04:29 11.4 °C 8.8 °C 1010.4 hPa North 27.8 km/h 11.9 km/h 84 % 0 mm
04:34 11.1 °C 8.5 °C 1010.4 hPa SW 31.5 km/h 22.4 km/h 84 % 0.51 mm
04:39 10.7 °C 8.5 °C 1010.4 hPa SW 18.5 km/h 10.6 km/h 86 % 0.51 mm
04:44 10.5 °C 8.1 °C 1010.4 hPa North 18.5 km/h 16.4 km/h 85 % 0.51 mm
04:49 10.4 °C 8.1 °C 1010.4 hPa SW 18.5 km/h 13.4 km/h 85 % 0.51 mm
04:54 10.4 °C 8.1 °C 1010.4 hPa WSW 16.7 km/h 18 km/h 85 % 0.51 mm
04:59 10.4 °C 8.1 °C 1010.7 hPa North 20.4 km/h 11.7 km/h 85 % 0.51 mm
05:04 10.4 °C 8.1 °C 1010.7 hPa SW 16.7 km/h 14 km/h 85 % 0.51 mm
05:09 10.4 °C 8 °C 1010.7 hPa SSW 18.5 km/h 14.3 km/h 85 % 0.51 mm
05:14 10.3 °C 7.9 °C 1011.1 hPa SSW 18.5 km/h 11.1 km/h 85 % 0.51 mm
05:19 10.3 °C 7.9 °C 1011.1 hPa SW 18.5 km/h 15.9 km/h 85 % 0.51 mm
05:24 10.2 °C 7.8 °C 1011.1 hPa SSW 22.2 km/h 12.1 km/h 85 % 0.51 mm
05:29 10.2 °C 7.8 °C 1011.1 hPa SSW 14.8 km/h 12.2 km/h 85 % 0.51 mm
05:34 10.1 °C 7.6 °C 1011.1 hPa WSW 16.7 km/h 6.3 km/h 84 % 0 mm
05:39 10.1 °C 7.5 °C 1011.1 hPa SSW 11.1 km/h 5.6 km/h 84 % 0 mm
05:44 10 °C 7.4 °C 1011.1 hPa SSW 11.3 km/h 9 km/h 84 % 0 mm
05:49 9.9 °C 7.3 °C 1011.4 hPa SW 13 km/h 7.7 km/h 84 % 0 mm
05:54 9.9 °C 7.4 °C 1011.4 hPa SSW 14.8 km/h 6.8 km/h 84 % 0 mm
05:59 9.9 °C 7.3 °C 1011.4 hPa SSW 11.3 km/h 8 km/h 84 % 0 mm
06:04 9.8 °C 7.1 °C 1011.4 hPa SSW 13 km/h 8.5 km/h 83 % 0 mm
06:09 9.8 °C 7.1 °C 1011.4 hPa SSW 7.4 km/h 6.9 km/h 83 % 0 mm
06:14 9.7 °C 7.2 °C 1011.4 hPa SSW 13 km/h 8.2 km/h 84 % 0 mm
06:19 9.7 °C 7.1 °C 1011.4 hPa SSW 11.1 km/h 7.4 km/h 84 % 0 mm
06:24 9.6 °C 7.1 °C 1011.4 hPa SSW 9.7 km/h 6.8 km/h 84 % 0 mm
06:29 9.6 °C 7.1 °C 1011.4 hPa SSW 18.5 km/h 7.9 km/h 84 % 0 mm
06:34 9.6 °C 7.1 °C 1011.4 hPa WSW 20.4 km/h 11.9 km/h 84 % 0 mm
06:39 9.6 °C 7 °C 1011.7 hPa SW 16.7 km/h 8.5 km/h 84 % 0 mm
06:44 9.5 °C 6.9 °C 1011.7 hPa SW 16.7 km/h 11.9 km/h 84 % 0 mm
06:49 9.4 °C 6.9 °C 1011.7 hPa SW 18.5 km/h 8 km/h 84 % 0 mm
06:54 9.3 °C 6.8 °C 1011.7 hPa SW 19.3 km/h 11.6 km/h 84 % 0 mm
06:59 9.4 °C 6.7 °C 1011.7 hPa WSW 14.8 km/h 10 km/h 83 % 0 mm
07:04 9.4 °C 6.7 °C 1012.1 hPa SW 18.5 km/h 16.4 km/h 83 % 0 mm
07:09 9.4 °C 6.7 °C 1012.1 hPa WSW 16.7 km/h 7.4 km/h 83 % 0 mm
07:14 9.4 °C 6.7 °C 1012.1 hPa WSW 16.7 km/h 12.4 km/h 83 % 0 mm
07:18 9.4 °C 6.4 °C 1012.1 hPa WSW 18.5 km/h 12.6 km/h 82 % 0 mm
07:29 9.4 °C 6.3 °C 1012.1 hPa WSW 18.5 km/h 10.1 km/h 81 % 0 mm
07:34 9.4 °C 6.3 °C 1012.4 hPa WSW 11.1 km/h 11.6 km/h 81 % 0 mm
07:39 9.4 °C 6.3 °C 1012.4 hPa North 11.1 km/h 8 km/h 81 % 0 mm
07:44 9.5 °C 6.2 °C 1012.8 hPa WSW 22.2 km/h 11.3 km/h 80 % 0 mm
07:49 9.6 °C 6.3 °C 1012.8 hPa SW 14.8 km/h 10.3 km/h 80 % 0 mm
07:54 9.6 °C 6.3 °C 1012.8 hPa SW 20.4 km/h 10.6 km/h 80 % 0 mm
07:59 9.7 °C 6.3 °C 1012.8 hPa WSW 18.5 km/h 12.7 km/h 79 % 0 mm
08:04 9.7 °C 6.3 °C 1013.1 hPa WSW 14.8 km/h 10.6 km/h 79 % 0 mm
08:09 9.8 °C 6.4 °C 1013.4 hPa WSW 19.3 km/h 11.6 km/h 79 % 0 mm
08:14 10 °C 6.5 °C 1013.4 hPa SW 16.7 km/h 13.2 km/h 79 % 0 mm
08:19 10.2 °C 6.5 °C 1013.4 hPa SW 20.4 km/h 14.6 km/h 78 % 0 mm
08:24 10.3 °C 6.4 °C 1013.4 hPa SW 18.5 km/h 6.4 km/h 77 % 0 mm
08:29 10.4 °C 6.7 °C 1013.4 hPa SW 11.1 km/h 6.1 km/h 78 % 0 mm
08:34 10.5 °C 6.6 °C 1013.8 hPa SW 18.5 km/h 11.1 km/h 77 % 0 mm
08:39 10.7 °C 6.6 °C 1013.8 hPa SW 11.1 km/h 6.4 km/h 76 % 0 mm
08:44 10.8 °C 6.5 °C 1013.8 hPa SW 13 km/h 13 km/h 75 % 0 mm
08:49 10.9 °C 6.7 °C 1013.4 hPa SW 13 km/h 8.2 km/h 75 % 0 mm
08:54 11.1 °C 6.2 °C 1013.8 hPa SW 20.4 km/h 15.1 km/h 72 % 0 mm
08:59 11.2 °C 5.9 °C 1013.8 hPa WSW 14.8 km/h 9.7 km/h 70 % 0 mm
09:04 11.3 °C 5.8 °C 1013.8 hPa SW 25.9 km/h 15.8 km/h 69 % 0 mm
09:09 11.4 °C 5.7 °C 1013.8 hPa West 16.7 km/h 11.6 km/h 68 % 0 mm
09:14 11.4 °C 5.7 °C 1013.8 hPa SW 14.8 km/h 11.4 km/h 68 % 0 mm
09:19 11.6 °C 6.1 °C 1014.1 hPa SW 18.5 km/h 12.1 km/h 69 % 0 mm
09:24 11.8 °C 6.1 °C 1014.1 hPa SW 18.5 km/h 15.3 km/h 68 % 0 mm
09:29 11.8 °C 5.6 °C 1014.1 hPa WSW 22.5 km/h 16.7 km/h 66 % 0 mm
09:34 11.8 °C 5.4 °C 1014.1 hPa SW 35.2 km/h 20 km/h 65 % 0 mm
09:39 11.7 °C 5.3 °C 1014.4 hPa SW 29.6 km/h 14.6 km/h 65 % 0 mm
09:44 11.7 °C 5.3 °C 1014.4 hPa SW 38.6 km/h 20.3 km/h 65 % 0 mm
09:49 11.6 °C 4.8 °C 1014.8 hPa SW 38.9 km/h 25.1 km/h 63 % 0 mm
09:54 11.8 °C 5.2 °C 1014.8 hPa WSW 32.2 km/h 22.7 km/h 64 % 0 mm
09:59 11.9 °C 5.1 °C 1014.8 hPa SW 31.5 km/h 20.4 km/h 63 % 0 mm
10:04 11.9 °C 4.9 °C 1014.8 hPa SW 31.5 km/h 18.5 km/h 62 % 0 mm
10:09 11.9 °C 5.1 °C 1014.8 hPa SSW 29.6 km/h 25.4 km/h 63 % 0 mm
10:14 11.9 °C 4.9 °C 1015.1 hPa WSW 27.8 km/h 26.6 km/h 62 % 0 mm
10:19 12.2 °C 5.1 °C 1015.1 hPa SW 24.1 km/h 12.9 km/h 62 % 0 mm
10:24 12.3 °C 4.8 °C 1015.1 hPa SW 20.4 km/h 15 km/h 60 % 0 mm
10:29 12.3 °C 4.7 °C 1015.5 hPa WSW 32.2 km/h 17.5 km/h 60 % 0 mm
10:34 12.4 °C 4.6 °C 1015.5 hPa SW 37 km/h 26.6 km/h 59 % 0 mm
10:39 12.6 °C 4.8 °C 1015.5 hPa SW 38.9 km/h 24.3 km/h 59 % 0 mm
10:44 12.4 °C 4.7 °C 1015.5 hPa West 33.3 km/h 21.9 km/h 59 % 0 mm
10:49 12.6 °C 4.8 °C 1015.5 hPa WSW 25.9 km/h 17.5 km/h 59 % 0 mm
10:54 12.6 °C 4.6 °C 1015.5 hPa SW 29.6 km/h 17.1 km/h 58 % 0 mm
10:59 12.6 °C 4.8 °C 1015.5 hPa SSW 25.7 km/h 15 km/h 59 % 0 mm
11:04 12.9 °C 4.6 °C 1015.8 hPa SW 38.9 km/h 27.8 km/h 57 % 0 mm
11:09 12.8 °C 4.7 °C 1015.8 hPa WSW 29 km/h 21.6 km/h 58 % 0 mm
11:14 13 °C 4.2 °C 1015.8 hPa SW 31.5 km/h 15.3 km/h 55 % 0 mm
11:19 13.3 °C 3.6 °C 1015.8 hPa SW 31.5 km/h 25.6 km/h 52 % 0 mm
11:24 13.3 °C 3.7 °C 1015.8 hPa SW 25.9 km/h 14.6 km/h 52 % 0 mm
11:29 13.4 °C 3.7 °C 1015.8 hPa WSW 27.8 km/h 21.7 km/h 52 % 0 mm
11:34 13.6 °C 3.4 °C 1015.8 hPa WSW 29.6 km/h 18.3 km/h 50 % 0 mm
11:39 13.5 °C 3 °C 1015.8 hPa WSW 31.5 km/h 19.5 km/h 49 % 0 mm
11:44 13.3 °C 3.1 °C 1016.1 hPa SW 33.3 km/h 26.6 km/h 50 % 0 mm
11:49 13.9 °C 2.8 °C 1016.1 hPa SW 37 km/h 30.1 km/h 47 % 0 mm
11:54 14 °C 2.6 °C 1016.1 hPa SW 31.5 km/h 20.8 km/h 46 % 0 mm
11:59 14.2 °C 3.6 °C 1015.8 hPa WSW 19.3 km/h 19.5 km/h 49 % 0 mm
12:04 14.7 °C 3.2 °C 1016.1 hPa SW 29.6 km/h 26.1 km/h 46 % 0 mm
12:09 14.4 °C 3.3 °C 1016.1 hPa SSW 29.6 km/h 15.9 km/h 47 % 0 mm
12:14 14 °C 2.8 °C 1016.1 hPa SW 24.1 km/h 19.3 km/h 47 % 0 mm
12:19 13.9 °C 2.8 °C 1016.1 hPa WSW 22.5 km/h 22.2 km/h 47 % 0 mm
12:24 13.7 °C 2.9 °C 1016.1 hPa SW 32.2 km/h 21.9 km/h 48 % 0 mm
12:29 13.9 °C 3.1 °C 1016.1 hPa West 33.8 km/h 24.5 km/h 48 % 0 mm
12:34 13.5 °C 3.3 °C 1016.1 hPa South 38.9 km/h 30.6 km/h 50 % 0 mm
12:39 13.9 °C 3.6 °C 1016.1 hPa SW 31.5 km/h 19.2 km/h 50 % 0 mm
12:44 13.9 °C 3.9 °C 1016.1 hPa SSW 24.1 km/h 13.8 km/h 51 % 0 mm
12:49 14.2 °C 3.7 °C 1016.1 hPa SSW 33.8 km/h 19.6 km/h 49 % 0 mm
12:54 14.1 °C 3.3 °C 1016.1 hPa WSW 27.8 km/h 13.7 km/h 48 % 0 mm
12:59 14.4 °C 2.9 °C 1016.1 hPa WSW 37 km/h 16.6 km/h 46 % 0 mm
13:04 14.6 °C 3.4 °C 1016.1 hPa West 29 km/h 20.6 km/h 47 % 0 mm
13:09 15 °C 3.2 °C 1016.1 hPa South 37 km/h 18.7 km/h 45 % 0 mm
13:14 14.8 °C 2.3 °C 1016.1 hPa WSW 33.3 km/h 15.1 km/h 43 % 0 mm
13:19 15 °C 2.2 °C 1015.8 hPa West 29.6 km/h 21.6 km/h 42 % 0 mm
13:24 15.6 °C 3.7 °C 1016.1 hPa SSW 29.6 km/h 20 km/h 45 % 0 mm
13:29 15.5 °C 3.3 °C 1016.1 hPa West 29.6 km/h 17.1 km/h 44 % 0 mm
13:34 15.3 °C 3.1 °C 1016.1 hPa West 24.1 km/h 16.4 km/h 44 % 0 mm
13:39 15.9 °C 2.3 °C 1015.8 hPa SSW 38.6 km/h 24 km/h 40 % 0 mm
13:44 15.2 °C 2 °C 1016.1 hPa WSW 29.6 km/h 27.4 km/h 41 % 0 mm
13:49 14.5 °C 3.9 °C 1016.1 hPa WSW 37 km/h 20 km/h 49 % 0 mm
13:54 14.3 °C 4.6 °C 1016.1 hPa WSW 25.9 km/h 16.3 km/h 52 % 0 mm
13:59 14.8 °C 5.1 °C 1016.1 hPa West 31.5 km/h 15.8 km/h 52 % 0 mm
14:04 15.1 °C 4.8 °C 1016.1 hPa WSW 29.6 km/h 24.5 km/h 50 % 0 mm
14:09 14.9 °C 3.4 °C 1016.1 hPa WSW 25.9 km/h 19.8 km/h 46 % 0 mm
14:14 14.9 °C 2.7 °C 1016.1 hPa SW 30.6 km/h 14.5 km/h 44 % 0 mm
14:19 15.1 °C 2.9 °C 1016.1 hPa SSW 20.4 km/h 12.1 km/h 44 % 0 mm
14:24 15.3 °C 3.4 °C 1016.1 hPa WSW 22.2 km/h 13.7 km/h 45 % 0 mm
14:29 15.4 °C 3.6 °C 1016.1 hPa WSW 31.5 km/h 16.7 km/h 45 % 0 mm
14:34 15.6 °C 3.3 °C 1016.1 hPa SW 33.3 km/h 28.6 km/h 44 % 0 mm
14:39 15.6 °C 3.7 °C 1016.1 hPa SW 19.3 km/h 19.8 km/h 45 % 0 mm
14:44 15.4 °C 3.6 °C 1016.1 hPa SSW 31.5 km/h 25.4 km/h 45 % 0 mm
14:49 15.5 °C 2.6 °C 1016.1 hPa SW 33.8 km/h 21.7 km/h 42 % 0 mm
14:54 15.7 °C 2.2 °C 1016.5 hPa West 38.9 km/h 23.5 km/h 40 % 0 mm
14:59 15.7 °C 2.5 °C 1016.1 hPa SSW 25.9 km/h 16.6 km/h 41 % 0 mm
15:04 16.3 °C 2.3 °C 1016.5 hPa SSW 29.6 km/h 21.4 km/h 39 % 0 mm
15:09 15.1 °C 2.9 °C 1016.8 hPa SW 37 km/h 31.2 km/h 44 % 0 mm
15:14 14.5 °C 3.3 °C 1016.8 hPa SSW 31.5 km/h 24.5 km/h 47 % 0 mm
15:19 14.9 °C 3.7 °C 1016.5 hPa South 31.5 km/h 24.5 km/h 47 % 0 mm
15:24 15.3 °C 3.4 °C 1016.8 hPa SW 24.1 km/h 16.3 km/h 45 % 0 mm
15:29 14.9 °C 2.7 °C 1016.8 hPa SW 37 km/h 25.9 km/h 44 % 0 mm
15:34 14.7 °C 2.8 °C 1016.8 hPa WSW 31.5 km/h 19.5 km/h 45 % 0 mm
15:39 14.9 °C 3.1 °C 1016.8 hPa SW 18.5 km/h 16.9 km/h 45 % 0 mm
15:44 15.3 °C 2.5 °C 1016.5 hPa WSW 25.9 km/h 19.3 km/h 42 % 0 mm
15:49 15.8 °C 2.2 °C 1016.5 hPa WSW 16.7 km/h 9 km/h 40 % 0 mm
15:54 15.4 °C 2.2 °C 1016.5 hPa SW 19.3 km/h 16.6 km/h 41 % 0 mm
15:59 14.8 °C 2.7 °C 1016.8 hPa South 22.2 km/h 11.1 km/h 44 % 0 mm
16:04 14.6 °C 3.1 °C 1016.8 hPa South 25.9 km/h 18.2 km/h 46 % 0 mm
16:09 14.7 °C 3.4 °C 1016.8 hPa SSW 22.2 km/h 18.2 km/h 47 % 0 mm
16:14 14.7 °C 3.2 °C 1016.8 hPa SSW 24.1 km/h 13.8 km/h 46 % 0 mm
16:19 14.9 °C 3.4 °C 1016.8 hPa SSW 27.8 km/h 18.8 km/h 46 % 0 mm
16:24 15.3 °C 3.4 °C 1016.8 hPa South 24.1 km/h 21.6 km/h 45 % 0 mm
16:29 15.8 °C 4.2 °C 1016.8 hPa South 31.5 km/h 13.7 km/h 46 % 0 mm
16:34 15.1 °C 3.6 °C 1016.8 hPa SSW 27.8 km/h 13.5 km/h 46 % 0 mm
16:39 15.4 °C 2.9 °C 1016.8 hPa SW 24.1 km/h 13.7 km/h 43 % 0 mm
16:44 15.7 °C 0.7 °C 1017.2 hPa SW 24.1 km/h 20.9 km/h 36 % 0 mm
16:49 15.9 °C 1.2 °C 1016.8 hPa West 37 km/h 18.5 km/h 37 % 0 mm
16:54 15.9 °C 1.3 °C 1016.8 hPa SSW 22.2 km/h 11.3 km/h 37 % 0 mm
16:59 16 °C 0.9 °C 1017.2 hPa SSW 33.3 km/h 24.8 km/h 36 % 0 mm
17:04 15.6 °C 0.9 °C 1017.2 hPa SSW 27.8 km/h 15.6 km/h 37 % 0 mm
17:09 15.7 °C 1 °C 1017.2 hPa SSW 24.1 km/h 18.5 km/h 37 % 0 mm
17:14 15.4 °C 1.9 °C 1017.5 hPa SSW 33.3 km/h 23.8 km/h 40 % 0 mm
17:19 15.3 °C 2.8 °C 1017.5 hPa SSW 38.9 km/h 22.9 km/h 43 % 0 mm
17:24 14.9 °C 2.4 °C 1017.5 hPa WSW 25.9 km/h 21.7 km/h 43 % 0 mm
17:29 14.9 °C 2.4 °C 1017.5 hPa SSW 25.9 km/h 18.8 km/h 43 % 0 mm
17:34 14.9 °C 2.7 °C 1017.5 hPa SSW 35.4 km/h 22.9 km/h 44 % 0 mm
17:39 15.3 °C 3.1 °C 1017.5 hPa SSW 25.7 km/h 20.3 km/h 44 % 0 mm
17:44 14.9 °C 2.1 °C 1017.2 hPa SSW 24.1 km/h 19.2 km/h 42 % 0 mm
17:49 14.8 °C 3.6 °C 1017.5 hPa South 33.8 km/h 18.5 km/h 47 % 0 mm
17:54 14.5 °C 3.3 °C 1017.5 hPa SSW 16.1 km/h 10.9 km/h 47 % 0 mm
17:59 14.6 °C 3.4 °C 1017.5 hPa South 31.5 km/h 20 km/h 47 % 0 mm
18:04 14.7 °C 3.2 °C 1017.5 hPa SSW 31.5 km/h 23.2 km/h 46 % 0 mm
18:09 14.6 °C 3.1 °C 1017.5 hPa South 16.7 km/h 15.3 km/h 46 % 0 mm
18:14 14.4 °C 2.6 °C 1017.8 hPa SSW 18.5 km/h 13.8 km/h 45 % 0 mm
18:19 14.6 °C 2.8 °C 1017.8 hPa SSW 33.3 km/h 12.6 km/h 45 % 0 mm
18:24 14.9 °C 2.4 °C 1018.2 hPa South 27.8 km/h 21.2 km/h 43 % 0 mm
18:29 14.9 °C 2.4 °C 1018.2 hPa SW 18.5 km/h 11.3 km/h 43 % 0 mm
18:34 14.6 °C 1.8 °C 1018.2 hPa SSW 22.2 km/h 15 km/h 42 % 0 mm
18:39 14.4 °C 1.6 °C 1018.2 hPa SW 18.5 km/h 13 km/h 42 % 0 mm
18:44 14.3 °C 1.8 °C 1018.2 hPa SSW 14.8 km/h 6.8 km/h 43 % 0 mm
18:49 14.5 °C 2.1 °C 1018.2 hPa SSW 18.5 km/h 16.3 km/h 43 % 0 mm
18:54 14.5 °C 2.1 °C 1018.2 hPa SSW 16.7 km/h 11.7 km/h 43 % 0 mm
18:59 14.5 °C 2.1 °C 1018.2 hPa SW 16.7 km/h 14.5 km/h 43 % 0 mm
19:04 14.5 °C 2.1 °C 1018.2 hPa SSW 11.1 km/h 13.4 km/h 43 % 0 mm
19:09 14.4 °C 1.9 °C 1018.5 hPa SSW 20.4 km/h 10.3 km/h 43 % 0 mm
19:14 14.2 °C 1.8 °C 1018.5 hPa SSW 29.6 km/h 17.4 km/h 43 % 0 mm
19:19 14.2 °C 2.1 °C 1018.5 hPa SSW 25.9 km/h 16.4 km/h 44 % 0 mm
19:24 14.1 °C 2.6 °C 1018.5 hPa SSW 24.1 km/h 16.9 km/h 46 % 0 mm
19:29 13.8 °C 2.7 °C 1018.5 hPa South 16.1 km/h 7.4 km/h 47 % 0 mm
19:34 13.6 °C 2.7 °C 1018.8 hPa SSW 22.2 km/h 14.5 km/h 48 % 0 mm
19:39 13.3 °C 2.8 °C 1018.8 hPa South 18.5 km/h 12.4 km/h 49 % 0 mm
19:44 13.2 °C 2.9 °C 1018.8 hPa SW 25.9 km/h 14.8 km/h 50 % 0 mm
19:49 13 °C 3.1 °C 1018.8 hPa SSW 18.5 km/h 16.3 km/h 51 % 0 mm
19:54 12.8 °C 3.2 °C 1018.8 hPa South 14.8 km/h 8.4 km/h 52 % 0 mm
19:59 12.7 °C 3.3 °C 1018.8 hPa SSW 25.9 km/h 15.1 km/h 53 % 0 mm
20:04 12.6 °C 3.2 °C 1019.2 hPa South 14.8 km/h 8.9 km/h 53 % 0 mm
20:09 12.4 °C 3.3 °C 1019.2 hPa South 14.8 km/h 9 km/h 54 % 0 mm
20:14 12.3 °C 3.2 °C 1019.2 hPa South 14.8 km/h 8.7 km/h 54 % 0 mm
20:19 12.2 °C 3.1 °C 1019.5 hPa South 14.5 km/h 13 km/h 54 % 0 mm
20:24 12 °C 3.2 °C 1019.5 hPa South 11.1 km/h 5.6 km/h 55 % 0 mm
20:29 11.9 °C 3.1 °C 1019.5 hPa South 11.1 km/h 4.7 km/h 55 % 0 mm
20:34 11.8 °C 3 °C 1019.5 hPa South 13 km/h 5.3 km/h 55 % 0 mm
20:39 11.7 °C 3.2 °C 1019.9 hPa South 7.4 km/h 5 km/h 56 % 0 mm
20:44 11.5 °C 3 °C 1019.9 hPa South 6.4 km/h 5.1 km/h 56 % 0 mm
20:49 11.4 °C 3.2 °C 1019.9 hPa South 6.4 km/h 4.5 km/h 57 % 0 mm
20:54 11.3 °C 3.1 °C 1020.2 hPa South 9.3 km/h 7.6 km/h 57 % 0 mm
20:59 11.2 °C 3 °C 1020.2 hPa South 9.3 km/h 6.3 km/h 57 % 0 mm
21:04 11.1 °C 3.2 °C 1020.5 hPa South 13 km/h 7.6 km/h 58 % 0 mm
21:09 11 °C 3.1 °C 1020.5 hPa South 9.3 km/h 4 km/h 58 % 0 mm
21:14 11 °C 3.3 °C 1020.5 hPa South 16.1 km/h 11.9 km/h 59 % 0 mm
21:19 10.9 °C 3.5 °C 1020.5 hPa South 16.7 km/h 11.7 km/h 60 % 0 mm
21:24 10.9 °C 3.4 °C 1020.9 hPa SSW 14.8 km/h 9 km/h 60 % 0 mm
21:29 10.8 °C 3.6 °C 1021.2 hPa SSW 12.9 km/h 6.3 km/h 61 % 0 mm
21:34 10.7 °C 3.7 °C 1020.9 hPa SSW 7.4 km/h 7.2 km/h 62 % 0 mm
21:39 10.6 °C 3.6 °C 1021.2 hPa SSW 7.4 km/h 7.2 km/h 62 % 0 mm
21:44 10.5 °C 3.7 °C 1021.2 hPa SSW 9.3 km/h 4 km/h 63 % 0 mm
21:49 10.4 °C 3.7 °C 1021.2 hPa SSW 5.6 km/h 4.3 km/h 63 % 0 mm
21:54 10.3 °C 3.6 °C 1021.2 hPa SSW 5.6 km/h 3.1 km/h 63 % 0 mm
21:59 10.1 °C 3.6 °C 1021.2 hPa SSW 5.6 km/h 1.4 km/h 64 % 0 mm
22:04 10 °C 3.7 °C 1021.2 hPa SSW 5.6 km/h 2.6 km/h 65 % 0 mm
22:09 9.9 °C 3.6 °C 1021.2 hPa SSW 5.6 km/h 1.1 km/h 65 % 0 mm
22:14 9.7 °C 3.7 °C 1021.2 hPa SSW 3.7 km/h 2.4 km/h 66 % 0 mm
22:19 9.6 °C 3.6 °C 1021.2 hPa SSW 5.6 km/h 2.4 km/h 66 % 0 mm
22:24 9.5 °C 3.7 °C 1021.2 hPa SSW 5.6 km/h 5.6 km/h 67 % 0 mm
22:29 9.3 °C 3.5 °C 1021.2 hPa SSW 5.6 km/h 3.9 km/h 67 % 0 mm
22:34 9.3 °C 3.7 °C 1021.6 hPa SSW 5.6 km/h 3.1 km/h 68 % 0 mm
22:39 9.2 °C 3.6 °C 1021.6 hPa SSW 3.7 km/h 1.8 km/h 68 % 0 mm
22:44 9.2 °C 3.6 °C 1021.6 hPa SSW 5.6 km/h 1.6 km/h 68 % 0 mm
22:49 9.1 °C 3.7 °C 1021.6 hPa SSW 5.6 km/h 4 km/h 69 % 0 mm
22:54 9.1 °C 3.7 °C 1021.6 hPa SSW 5.6 km/h 4 km/h 69 % 0 mm
22:59 9 °C 3.6 °C 1021.9 hPa SSW 5.6 km/h 4.7 km/h 69 % 0 mm
23:02 8.9 °C 3.6 °C 1021.9 hPa SSW 5.6 km/h 5 km/h 69 % 0 mm
23:09 8.8 °C 3.7 °C 1021.9 hPa SSW 7.4 km/h 4.3 km/h 70 % 0 mm
23:14 8.8 °C 3.7 °C 1021.9 hPa SSW 5.6 km/h 3.9 km/h 70 % 0 mm
23:19 8.8 °C 3.7 °C 1021.9 hPa SSW 5.6 km/h 2.9 km/h 70 % 0 mm
23:24 8.8 °C 3.8 °C 1021.9 hPa SSW 3.7 km/h 1.6 km/h 71 % 0 mm
23:29 8.7 °C 3.8 °C 1021.6 hPa SSW 5.6 km/h 3.5 km/h 71 % 0 mm
23:34 8.7 °C 3.7 °C 1021.6 hPa SSW 5.6 km/h 3.4 km/h 71 % 0 mm
23:39 8.6 °C 3.6 °C 1021.6 hPa SSW 5.6 km/h 3.9 km/h 71 % 0 mm
23:44 8.4 °C 3.7 °C 1021.6 hPa SSW 6.4 km/h 3.5 km/h 72 % 0 mm
23:49 8.3 °C 3.6 °C 1021.9 hPa SSW 5.6 km/h 3.1 km/h 72 % 0 mm
23:54 8.3 °C 3.8 °C 1021.9 hPa SSW 5.6 km/h 3.4 km/h 73 % 0 mm
23:59 8.3 °C 3.7 °C 1021.9 hPa SSW 6.4 km/h 3.7 km/h 73 % 0 mm
Ararat Weather
Compliments of Weather Underground - 2.5 mb
Click here to send mail.


ABOUT

Live weather data from Ararat, Victoria, Australia, 3377
Data uploaded from Cumulus every 5 minutes to Weather Underground.
This site then downloads the raw data for formatting and display.
Metric and imperial data can be displayed. Graphs and historical data available.
Includes Sun and Moon times and rain image live from BOM.

Check out Ararat Weather on Facebook, Twitter and Google +

Help support ongoing costs by checking out the ads





Follow @AraratWeather